Regional Weather Roundup
Issued by NWS Goodland, KS

Home | Current Version | Previous Version | Graphics & Text | Print | Product List | Glossary On
Versions: 1 2 3 4 5 6 7 8 9 10 11 12 13 14 15 16 17 18 19 20 21 22 23 24 25 26 27 28 29 30 31 32 33 34 35 36 37 38 39 40 41 42 43 44 45 46 47 48 49 50
000
ASUS43 KGLD 272159
RWRGLD

GOODLAND FORECAST AREA HOURLY WEATHER ROUNDUP
NATIONAL WEATHER SERVICE GOODLAND KS
300 PM MST MON FEB 27 2017

...OFFICIAL OBSERVATIONS...

CITY           SKY/WX    TMP DP  RH WIND       PRES   REMARKS
GOODLAND KS    SUNNY     58   9  14 SW14G23   29.60F
HILL CITY KS   SUNNY     62  17  17 SW12      29.65F
IMPERIAL NEB   SUNNY     54  15  21 S12       29.60F
MCCOOK NEB     SUNNY     56  23  27 S12G18    29.63F
AKRON CO       SUNNY     58  10  15 S14       29.52F
BURLINGTON CO  CLOUDY    59  13  16 SW20      29.60F
LIMON CO       SUNNY     68   5   8 SW26G40   29.55F
$$

...UNOFFICIAL OBSERVATIONS...

CITY           SKY/WX    TMP DP  RH WIND       PRES   REMARKS
LENORA KS        N/A     59  32  36 S8          N/A
NORTON KS      SUNNY     57  16  19 S10G17    29.65S
SHARON SPRINGS   N/A     61  15  16 S16G24      N/A
TRENTON NEB      N/A     58  32  37 S5          N/A
KIT CARSON CO    N/A     60  18  19 MISG        N/A
YUMA CO        FAIR      55  12  18 S14G20    29.54F
$$



USA.gov is the U.S. government's official web portal to all federal, state and local government web resources and services.